Hourly Weather Roundup
Issued by NWS Central Illinois

Home | Current Version | Previous Version | Text Only | Print | Product List | Glossary On
Versions: 1 2 3 4 5 6 7 8 9 10 11 12 13 14 15 16 17 18 19 20 21 22 23 24 25 26 27 28 29 30 31 32 33 34 35 36 37 38 39 40 41 42 43 44 45 46 47 48 49 50
000
NZUS43 KILX 070210
HWRILX

AREA WEATHER ROUNDUP
NATIONAL WEATHER SERVICE, LINCOLN IL
900 PM CDT MON JUL 06 2015


CITY           SKY/WX    TMP DP  RH WIND       PRES   REMARKS
BLOOMINGTON    CLOUDY    78  73  84 S13       29.91S HX  80
CHAMPAIGN      LGT RAIN  74  68  81 S7        29.93R
DANVILLE       CLOUDY    76  70  80 S8        29.90S
DECATUR        CLOUDY    77  71  82 S9        29.92R
EFFINGHAM      MOCLDY    78  73  83 S3        29.96R HX  80
FLORA          MOCLDY    79  73  82 S7        29.96R HX  83
GALESBURG      HVY RAIN  71  69  96 CALM      29.91S
JACKSONVILLE   CLOUDY    82  74  77 S12       29.88F HX  87
LACON          LGT RAIN  74  70  87 CALM      29.85S
LAWRENCEVILLE  MOCLDY    78  74  87 S6        29.96R HX  81
LITCHFIELD     MOCLDY    73  69  87 S6        29.93S
$$


CITY           SKY/WX    TMP DP  RH WIND       PRES   REMARKS
LINCOLN        CLOUDY    79  73  80 S7        29.89F HX  83
MACOMB         RAIN      77  76  96 CALM      29.90R
MATTOON        CLOUDY    75  70  84 S7        29.93R
MT CARMEL AP   PTCLDY    81  72  74 SW7       29.96R HX  84
OLNEY-NOBLE AP MOCLDY    79  73  83 S5        29.96R HX  82
PARIS          CLOUDY    72  69  90 S3        29.95R
PEORIA         CLOUDY    83  71  67 SW15G23   29.87S HX  87
PONTIAC        CLOUDY    81  74  80 S13G20    29.89S HX  86
RANTOUL        CLOUDY    78  69  72 SW6       29.92S HX  80
ROBINSON       MOCLDY    78  73  85 S5        29.96R HX  81
SPRINGFIELD    CLOUDY    82  74  76 S10       29.90R HX  88
TAYLORVILLE    CLOUDY    75  68  78 S6        29.92S
$$

...REGIONAL REPORTS...


CITY           SKY/WX    TMP DP  RH WIND       PRES   REMARKS
CHICAGO O`HARE TSTM      73  70  90 W21G26    29.88R FOG
KANKAKEE       LGT RAIN  77  74  89 S6        29.89R
MOLINE         HVY RAIN  71  69  93 S8        29.86F FOG
MOUNT STERLING NOT AVBL
MOUNT VERNON   PTCLDY    81  70  69 S6        29.96R HX  84
PITTSFIELD     CLOUDY    80  74  84 S3        29.89S HX  84
QUINCY         LGT RAIN  80  75  84 S6        29.86F HX  85
ROCKFORD       CLOUDY    73  68  84 S8        29.87R
$$


CITY           SKY/WX    TMP DP  RH WIND       PRES   REMARKS
BURLINGTON     HVY RAIN  72  71  97 CALM      29.90R FOG
CEDAR RAPIDS   CLOUDY    71  66  84 N13       29.88R
DES MOINES     CLOUDY    71  60  68 N13       29.93R HAZE
KIRKSVILLE     LGT RAIN  73  71  93 CALM      29.90S
OTTUMWA        CLOUDY    72  71  97 NW5       29.87R
ST LOUIS       CLOUDY    84  73  69 S9        29.91R HX  90
$$


CITY           SKY/WX    TMP DP  RH WIND       PRES   REMARKS
TERRE HAUTE    CLOUDY    73  70  90 CALM      29.95S
EVANSVILLE     PTCLDY    82  72  71 S8        29.98R HX  87
INDIANAPOLIS   MOCLDY    78  69  73 S8        29.96R HX  80
LAFAYETTE      CLOUDY    78  71  79 S5        29.92R HX  80
MADISON        LGT RAIN  75  71  87 CALM      29.81S FOG
MILWAUKEE      LGT RAIN  74  71  91 W5        29.82S
$$




USA.gov is the U.S. government's official web portal to all federal, state and local government web resources and services.